GW5908 Weather Reports


time (UTC)temp
C
wind
direction
speed
KPH
gust
KPH
rain 1hr
cm
rain 24hr
cm
rain mn
cm
humidity
%
barometer
mb
20260906175208 36 168 0.0 1.6 0.00 0.00 0.00 49 1014.0
20260906174706 36 168 0.0 3.2 0.00 0.00 0.00 49 1014.1
20260906174200 36 158 1.6 3.2 0.00 0.00 0.00 47 1014.4
20260906173656 36 146 3.2 3.2 0.00 0.00 0.00 47 1014.4
20260906173151 36 157 0.0 4.8 0.00 0.00 0.00 48 1014.3
20260906172650 35 169 0.0 1.6 0.00 0.00 0.00 52 1014.4
20260906172146 35 158 1.6 3.2 0.00 0.00 0.00 51 1014.5
20260906171646 35 142 0.0 3.2 0.00 0.00 0.00 52 1014.6
20260906171141 35 171 4.8 4.8 0.00 0.00 0.00 50 1014.7
20260906170637 35 161 3.2 8.0 0.00 0.00 0.00 52 1014.8
20260906170137 36 169 0.0 3.2 0.00 0.00 0.00 51 1014.7
20260906165633 36 166 3.2 8.0 0.00 0.00 0.00 51 1014.9
20260906165129 35 133 4.8 8.0 0.00 0.00 0.00 51 1014.8
20260906164627 35 163 1.6 8.0 0.00 0.00 0.00 55 1015.2
20260906164123 35 124 1.6 3.2 0.00 0.00 0.00 52 1014.8
20260906163620 35 130 3.2 3.2 0.00 0.00 0.00 52 1014.8
20260906163115 35 167 3.2 3.2 0.00 0.00 0.00 52 1014.9
20260906162612 35 164 0.0 1.6 0.00 0.00 0.00 58 1014.9
20260906162107 35 130 3.2 4.8 0.00 0.00 0.00 51 1014.9
20260906161607 35 13 1.6 3.2 0.00 0.00 0.00 53 1015.1
20260906161105 35 157 1.6 3.2 0.00 0.00 0.00 52 1014.8
20260906160604 35 161 1.6 1.6 0.00 0.00 0.00 56 1015.0
20260906160103 33 165 0.0 3.2 0.00 0.00 0.00 57 1014.8
20260906155601 33 165 1.6 3.2 0.00 0.00 0.00 55 1014.8
20260906155057 33 147 4.8 4.8 0.00 0.00 0.00 56 1014.7
20260906154552 35 174 3.2 8.0 0.00 0.00 0.00 53 1014.8
20260906154051 35 165 0.0 3.2 0.00 0.00 0.00 56 1014.8
20260906153550 35 151 1.6 3.2 0.00 0.00 0.00 57 1014.8
20260906153045 34 107 1.6 3.2 0.00 0.00 0.00 56 1014.6
20260906152545 33 160 0.0 3.2 0.00 0.00 0.00 59 1014.7
20260906152044 32 151 1.6 3.2 0.00 0.00 0.00 60 1014.9
20260906151540 32 144 1.6 3.2 0.00 0.00 0.00 60 1014.7
20260906151036 32 152 4.8 4.8 0.00 0.00 0.00 60 1014.7
20260906150531 31 158 1.6 3.2 0.00 0.00 0.00 61 1014.8
20260906150026 31 162 4.8 8.0 0.00 0.00 0.00 62 1015.0
20260906145525 31 165 0.0 3.2 0.00 0.00 0.00 64 1014.8
20260906145020 31 134 1.6 3.2 0.00 0.00 0.00 64 1015.0
20260906144514 31 51 1.6 8.0 0.00 0.00 0.00 64 1015.0
20260906144009 31 153 1.6 3.2 0.00 0.00 0.00 63 1014.8
20260906143505 31 162 3.2 4.8 0.00 0.00 0.00 64 1014.9
20260906143001 31 117 4.8 4.8 0.00 0.00 0.00 63 1014.9
20260906142500 30 175 3.2 8.0 0.00 0.00 0.00 65 1014.9
20260906141955 30 125 3.2 4.8 0.00 0.00 0.00 66 1014.7
20260906141454 30 141 3.2 3.2 0.00 0.00 0.00 67 1014.8
20260906140950 30 161 1.6 4.8 0.00 0.00 0.00 67 1014.8
20260906140444 30 124 1.6 4.8 0.00 0.00 0.00 67 1014.7
20260906135942 30 161 1.6 8.0 0.00 0.00 0.00 68 1014.8
20260906135441 30 163 3.2 3.2 0.00 0.00 0.00 67 1014.8
20260906134937 28 157 1.6 3.2 0.00 0.00 0.00 69 1014.7
20260906134432 28 103 1.6 4.8 0.00 0.00 0.00 69 1014.6
20260906133927 28 157 1.6 4.8 0.00 0.00 0.00 69 1014.7
20260906133423 28 154 3.2 4.8 0.00 0.00 0.00 69 1014.6
20260906132918 28 117 1.6 4.8 0.00 0.00 0.00 68 1014.6
20260906132414 28 134 0.0 4.8 0.00 0.00 0.00 70 1014.5
20260906131909 28 133 1.6 3.2 0.00 0.00 0.00 70 1014.5
20260906131404 28 159 1.6 3.2 0.00 0.00 0.00 69 1014.3
20260906130900 28 161 0.0 1.6 0.00 0.00 0.00 70 1014.5
20260906130359 28 138 4.8 4.8 0.00 0.00 0.00 69 1014.4
20260906125859 28 154 0.0 4.8 0.00 0.00 0.00 70 1014.4
20260906125355 27 153 0.0 0.0 0.00 0.00 0.00 72 1014.3
20260906124851 27 157 0.0 4.8 0.00 0.00 0.00 73 1014.3
20260906124347 26 159 0.0 3.2 0.00 0.00 0.00 75 1014.1
20260906123846 25 159 1.6 3.2 0.00 0.00 0.00 77 1014.0
20260906123341 25 156 1.6 3.2 0.00 0.00 0.00 78 1014.0
20260906122840 25 161 1.6 3.2 0.00 0.00 0.00 78 1014.0
20260906122335 24 160 0.0 1.6 0.00 0.00 0.00 79 1013.8
20260906121832 24 161 1.6 1.6 0.00 0.00 0.00 80 1013.6
20260906121328 25 164 0.0 1.6 0.00 0.00 0.00 79 1013.5
20260906120824 25 164 0.0 0.0 0.00 0.00 0.00 79 1013.9
20260906120320 25 163 1.6 1.6 0.00 0.00 0.00 78 1013.7
20260906115816 25 161 1.6 1.6 0.00 0.00 0.00 78 1013.8
20260906115311 25 162 0.0 0.0 0.00 0.00 0.00 79 1013.6
20260906114810 25 164 1.6 1.6 0.00 0.00 0.00 79 1013.9
20260906114306 24 165 1.6 1.6 0.00 0.00 0.00 79 1013.7
20260906113806 25 168 0.0 3.2 0.00 0.00 0.00 78 1013.6
20260906113305 24 161 1.6 3.2 0.00 0.00 0.00 79 1013.6
20260906112800 25 160 1.6 1.6 0.00 0.00 0.00 80 1013.4
20260906112257 25 164 1.6 3.2 0.00 0.00 0.00 78 1013.4
20260906111756 25 161 0.0 1.6 0.00 0.00 0.00 78 1013.6
20260906111255 25 161 0.0 0.0 0.00 0.00 0.00 78 1013.4
20260906110751 25 160 0.0 1.6 0.00 0.00 0.00 78 1013.5
20260906110247 25 168 0.0 1.6 0.00 0.00 0.00 78 1013.3
20260906105745 25 161 1.6 3.2 0.00 0.00 0.00 77 1013.4
20260906105241 25 158 1.6 3.2 0.00 0.00 0.00 78 1013.4
20260906104737 25 163 1.6 3.2 0.00 0.00 0.00 77 1013.6
20260906104235 25 162 1.6 1.6 0.00 0.00 0.00 78 1013.4
20260906103733 23 161 3.2 3.2 0.00 0.00 0.00 80 1013.4
20260906103228 23 160 0.0 0.0 0.00 0.00 0.00 82 1013.3
20260906102724 23 160 0.0 0.0 0.00 0.00 0.00 82 1013.4
20260906102223 24 160 0.0 0.0 0.00 0.00 0.00 82 1013.7
20260906101718 24 159 0.0 0.0 0.00 0.00 0.00 81 1013.3
20260906101213 24 159 0.0 0.0 0.00 0.00 0.00 81 1013.4
20260906100708 24 159 0.0 0.0 0.00 0.00 0.00 81 1013.2
20260906100202 25 159 0.0 1.6 0.00 0.00 0.00 79 1013.3
20260906095657 25 161 0.0 0.0 0.00 0.00 0.00 79 1013.2
20260906095153 25 156 0.0 0.0 0.00 0.00 0.00 79 1013.2
20260906094652 25 156 0.0 1.6 0.00 0.00 0.00 79 1013.4
20260906094148 25 159 0.0 0.0 0.00 0.00 0.00 79 1013.2
20260906093644 25 159 0.0 0.0 0.00 0.00 0.00 79 1013.2
20260906093143 25 159 0.0 0.0 0.00 0.00 0.00 78 1013.2
20260906092638 25 160 1.6 3.2 0.00 0.00 0.00 78 1013.1
20260906092138 24 160 0.0 4.8 0.00 0.00 0.00 79 1013.2
20260906091635 24 161 0.0 0.0 0.00 0.00 0.00 81 1013.3
20260906091131 24 158 0.0 1.6 0.00 0.00 0.00 81 1013.0
20260906090627 24 161 0.0 0.0 0.00 0.00 0.00 82 1012.9
20260906090126 24 160 0.0 0.0 0.00 0.00 0.00 81 1013.1
20260906085625 24 160 0.0 0.0 0.00 0.00 0.00 81 1012.9
20260906085120 24 160 0.0 0.0 0.00 0.00 0.00 80 1012.9
20260906084615 24 160 0.0 0.0 0.00 0.00 0.00 79 1012.8
20260906084113 24 160 0.0 0.0 0.00 0.00 0.00 80 1012.9
20260906083609 24 159 0.0 0.0 0.00 0.00 0.00 80 1012.7
20260906083109 24 159 0.0 0.0 0.00 0.00 0.00 81 1012.9
20260906082604 24 159 0.0 0.0 0.00 0.00 0.00 81 1012.7
20260906082100 24 159 0.0 0.0 0.00 0.00 0.00 80 1012.8
20260906081555 24 159 0.0 0.0 0.00 0.00 0.00 80 1013.0
20260906081051 24 159 0.0 0.0 0.00 0.00 0.00 80 1012.9
20260906080548 24 159 0.0 0.0 0.00 0.00 0.00 80 1012.7
20260906080043 25 159 0.0 0.0 0.00 0.00 0.00 80 1012.8
20260906075543 25 159 0.0 0.0 0.00 0.00 0.00 80 1012.7
20260906075038 25 159 0.0 0.0 0.00 0.00 0.00 79 1012.8
20260906074533 25 159 0.0 0.0 0.00 0.00 0.00 79 1012.9
20260906074031 25 159 0.0 0.0 0.00 0.00 0.00 79 1012.8
20260906073526 25 159 0.0 0.0 0.00 0.00 0.00 79 1012.8
20260906073022 25 159 0.0 0.0 0.00 0.00 0.00 79 1012.9
20260906072517 25 159 0.0 0.0 0.00 0.00 0.00 80 1013.0
20260906072014 25 159 0.0 0.0 0.00 0.00 0.00 79 1012.8
20260906071509 25 159 0.0 0.0 0.00 0.00 0.00 79 1012.8
20260906071004 25 159 0.0 0.0 0.00 0.00 0.00 79 1012.8
20260906070500 25 159 0.0 0.0 0.00 0.00 0.00 79 1012.7
20260906065955 25 159 0.0 0.0 0.00 0.00 0.00 79 1012.7
20260906065449 25 159 0.0 0.0 0.00 0.00 0.00 79 1013.0
20260906064945 25 159 0.0 0.0 0.00 0.00 0.00 78 1013.1
20260906064442 25 159 0.0 0.0 0.00 0.00 0.00 78 1013.2
20260906063942 25 159 0.0 0.0 0.00 0.00 0.00 78 1013.2
20260906063437 26 159 0.0 1.6 0.00 0.00 0.00 77 1013.0
20260906062937 26 158 0.0 0.0 0.00 0.00 0.00 76 1013.2
20260906062432 26 157 0.0 0.0 0.00 0.00 0.00 76 1013.2
20260906061927 26 157 0.0 0.0 0.00 0.00 0.00 75 1013.1
20260906061418 26 157 0.0 1.6 0.00 0.00 0.00 74 1013.2
20260906060912 26 161 1.6 3.2 0.00 0.00 0.00 73 1013.3
20260906060410 26 155 0.0 1.6 0.00 0.00 0.00 74 1013.1
20260906055906 26 154 0.0 0.0 0.00 0.00 0.00 76 1013.1
20260906055401 26 158 0.0 0.0 0.00 0.00 0.00 74 1013.5
20260906054856 27 160 0.0 1.6 0.00 0.00 0.00 72 1013.3
20260906054351 26 161 1.6 1.6 0.00 0.00 0.00 72 1013.2
20260906053847 26 157 0.0 1.6 0.00 0.00 0.00 73 1013.3
20260906053343 27 158 0.0 1.6 0.00 0.00 0.00 73 1013.4
20260906052838 27 160 0.0 0.0 0.00 0.00 0.00 72 1013.5
20260906052335 27 162 1.6 3.2 0.00 0.00 0.00 69 1013.4
20260906051831 27 160 1.6 1.6 0.00 0.00 0.00 68 1013.4
20260906051331 27 160 0.0 1.6 0.00 0.00 0.00 72 1013.2
20260906050827 27 163 1.6 1.6 0.00 0.00 0.00 70 1013.2
20260906050322 27 162 1.6 1.6 0.00 0.00 0.00 72 1013.4
20260906045820 27 166 1.6 3.2 0.00 0.08 0.08 71 1013.3
20260906045315 27 158 3.2 3.2 0.00 0.08 0.08 72 1013.4
20260906044811 26 160 0.0 1.6 0.00 0.08 0.08 74 1013.4
20260906044305 26 159 0.0 3.2 0.00 0.08 0.08 76 1013.1
20260906043801 26 158 0.0 0.0 0.00 0.08 0.08 78 1013.2
20260906043257 26 159 0.0 0.0 0.00 0.08 0.08 77 1013.3
20260906042756 26 163 0.0 0.0 0.00 0.08 0.08 77 1013.3
20260906042255 26 164 0.0 0.0 0.00 0.08 0.08 77 1013.1
20260906041751 26 161 0.0 1.6 0.00 0.08 0.08 76 1013.0
20260906041246 26 161 0.0 1.6 0.00 0.08 0.08 76 1013.1
20260906040742 27 161 0.0 0.0 0.00 0.08 0.08 75 1013.1
20260906040237 27 163 1.6 1.6 0.00 0.08 0.08 73 1013.0
20260906035732 27 158 0.0 0.0 0.00 0.08 0.08 73 1012.9
20260906035228 28 158 0.0 0.0 0.00 0.08 0.08 72 1013.0
20260906034727 28 158 1.6 1.6 0.00 0.08 0.08 68 1013.0
20260906034222 28 159 1.6 3.2 0.00 0.08 0.08 68 1012.9
20260906033718 27 162 1.6 3.2 0.00 0.08 0.08 72 1012.9
20260906033218 27 158 0.0 0.0 0.00 0.08 0.08 75 1012.9
20260906032716 27 158 0.0 0.0 0.00 0.08 0.08 74 1012.7
20260906032215 27 156 1.6 1.6 0.00 0.08 0.08 73 1012.7
20260906031710 27 156 0.0 0.0 0.00 0.08 0.08 72 1012.9
20260906031206 27 156 0.0 0.0 0.00 0.08 0.08 74 1012.7
20260906030705 27 156 0.0 0.0 0.00 0.08 0.08 74 1012.8
20260906030201 27 156 0.0 0.0 0.00 0.08 0.08 74 1012.8
20260906025700 27 156 0.0 0.0 0.00 0.08 0.08 73 1012.5
20260906025159 27 156 0.0 0.0 0.00 0.08 0.08 73 1012.4
20260906024654 28 156 0.0 0.0 0.00 0.08 0.08 72 1012.5
20260906024153 28 156 0.0 0.0 0.00 0.08 0.08 71 1012.1
20260906023649 28 156 0.0 0.0 0.00 0.08 0.08 71 1012.4
20260906023149 28 156 0.0 0.0 0.00 0.08 0.08 69 1012.1
20260906022644 28 156 0.0 0.0 0.00 0.08 0.08 70 1012.0
20260906022140 28 156 0.0 0.0 0.00 0.08 0.08 71 1011.9
20260906021636 28 156 1.6 1.6 0.00 0.08 0.08 70 1012.1
20260906021135 28 159 0.0 0.0 0.00 0.08 0.08 69 1011.9
20260906020634 28 159 0.0 0.0 0.00 0.08 0.08 69 1011.9
20260906020129 29 159 0.0 0.0 0.00 0.08 0.08 68 1011.7
20260906015624 29 159 0.0 0.0 0.00 0.08 0.08 68 1011.7
20260906015123 29 159 0.0 0.0 0.00 0.08 0.08 67 1011.7
20260906014623 29 159 0.0 0.0 0.00 0.08 0.08 67 1011.4
20260906014119 30 159 0.0 0.0 0.00 0.08 0.08 66 1011.7
20260906013614 30 160 0.0 0.0 0.00 0.08 0.08 65 1011.5
20260906013109 30 160 0.0 0.0 0.00 0.08 0.08 65 1011.5
20260906012605 30 160 0.0 0.0 0.00 0.08 0.08 65 1011.2
20260906012104 30 160 1.6 1.6 0.00 0.08 0.08 64 1011.2
20260906011601 30 160 0.0 1.6 0.00 0.08 0.08 65 1011.3
20260906011101 30 160 0.0 1.6 0.00 0.08 0.08 65 1011.4
20260906010556 30 160 0.0 0.0 0.00 0.08 0.08 67 1011.5
20260906010052 30 160 0.0 0.0 0.00 0.08 0.08 66 1011.3
20260906005551 30 160 0.0 0.0 0.00 0.08 0.08 66 1011.3
20260906005050 30 160 0.0 0.0 0.00 0.08 0.08 64 1011.3
20260906004550 30 160 0.0 0.0 0.00 0.08 0.08 65 1011.0
20260906004045 30 160 0.0 0.0 0.00 0.08 0.08 65 1011.3
20260906003540 31 160 0.0 1.6 0.00 0.08 0.08 64 1011.0
20260906003037 31 160 0.0 0.0 0.00 0.08 0.08 63 1011.2
20260906002537 31 160 0.0 0.0 0.00 0.08 0.08 62 1011.2
20260906002031 31 160 0.0 1.6 0.00 0.08 0.08 61 1011.1
20260906001527 31 160 0.0 1.6 0.00 0.08 0.08 61 1011.3
20260906001021 31 161 0.0 1.6 0.00 0.08 0.08 59 1011.2
20260906000517 32 160 0.0 0.0 0.00 0.08 0.08 59 1011.1
20260906000012 32 161 0.0 1.6 0.00 0.08 0.08 58 1011.4
20260905235511 33 166 0.0 0.0 0.00 0.08 0.08 57 1011.3
20260905235007 33 171 0.0 3.2 0.00 0.08 0.08 54 1011.4
20260905234503 34 168 0.0 1.6 0.00 0.08 0.08 53 1011.2
20260905234002 35 172 3.2 8.0 0.00 0.08 0.08 50 1011.2
20260905233458 35 176 0.0 1.6 0.00 0.08 0.08 49 1011.1
20260905232956 35 156 1.6 3.2 0.00 0.08 0.08 50 1011.3
20260905232453 36 171 1.6 3.2 0.00 0.08 0.08 47 1011.1
20260905231948 36 181 0.0 1.6 0.00 0.08 0.08 48 1011.1
20260905231444 36 158 1.6 3.2 0.00 0.08 0.08 47 1010.8
20260905230940 35 166 0.0 1.6 0.00 0.08 0.08 48 1011.1
20260905230438 35 172 1.6 1.6 0.00 0.08 0.08 46 1011.0
20260905225937 35 144 3.2 4.8 0.00 0.08 0.08 47 1011.2
20260905225432 35 128 1.6 1.6 0.00 0.08 0.08 47 1011.1
20260905224927 35 134 0.0 1.6 0.00 0.08 0.08 47 1011.0
20260905224423 35 170 1.6 3.2 0.00 0.08 0.08 46 1011.0
20260905223922 36 157 1.6 4.8 0.00 0.08 0.08 47 1011.3
20260905223421 36 157 1.6 8.0 0.00 0.08 0.08 46 1010.9
20260905222921 35 157 4.8 8.0 0.00 0.08 0.08 45 1011.1
20260905222420 35 166 4.8 9.7 0.00 0.08 0.08 47 1010.9
20260905221916 35 148 3.2 4.8 0.00 0.08 0.08 47 1011.1
20260905221412 35 148 1.6 3.2 0.00 0.08 0.08 49 1011.3
20260905220903 35 172 0.0 4.8 0.00 0.08 0.08 49 1011.1
20260905220359 36 159 3.2 3.2 0.00 0.08 0.08 44 1011.0
20260905215857 36 153 1.6 9.7 0.00 0.08 0.08 45 1011.3
20260905215353 36 196 1.6 3.2 0.00 0.08 0.08 43 1011.4
20260905214849 36 172 0.0 3.2 0.00 0.08 0.08 43 1011.2
20260905214344 38 162 1.6 4.8 0.00 0.08 0.08 40 1011.5
20260905213839 38 142 4.8 8.0 0.00 0.08 0.08 37 1011.4
20260905213336 38 72 4.8 8.0 0.00 0.08 0.08 36 1011.5
20260905212835 38 216 1.6 3.2 0.00 0.08 0.08 37 1011.6
20260905212330 38 169 4.8 4.8 0.00 0.08 0.08 35 1011.7
20260905211830 38 42 4.8 8.0 0.00 0.08 0.08 39 1011.7
20260905211325 37 195 0.0 3.2 0.00 0.08 0.08 37 1011.7
20260905210822 37 71 4.8 4.8 0.00 0.08 0.08 38 1011.8
20260905210321 37 348 6.4 9.7 0.00 0.08 0.08 38 1011.7
20260905205820 36 182 1.6 3.2 0.00 0.08 0.08 39 1011.8
20260905205315 36 98 3.2 3.2 0.00 0.08 0.08 40 1011.9
20260905204814 36 173 0.0 0.0 0.00 0.08 0.08 45 1012.0
20260905204311 36 168 1.6 1.6 0.00 0.08 0.08 40 1012.0
20260905203809 37 134 3.2 4.8 0.00 0.08 0.08 42 1012.3
20260905203305 36 182 0.0 3.2 0.00 0.08 0.08 39 1012.3
20260905202801 36 197 3.2 3.2 0.00 0.08 0.08 43 1012.5
20260905202255 35 185 1.6 3.2 0.00 0.08 0.08 41 1012.3
20260905201751 35 175 0.0 1.6 0.00 0.08 0.08 43 1012.6
20260905201246 35 170 0.0 0.0 0.00 0.08 0.08 48 1012.4
20260905200741 36 163 0.0 0.0 0.00 0.08 0.08 44 1012.6
20260905200237 36 177 0.0 3.2 0.00 0.08 0.08 42 1012.7
20260905195734 36 176 0.0 1.6 0.00 0.08 0.08 40 1012.6
20260905195229 36 190 1.6 8.0 0.00 0.08 0.08 41 1012.6
20260905194726 36 121 3.2 4.8 0.00 0.08 0.08 41 1012.9
20260905194225 36 166 3.2 4.8 0.00 0.08 0.08 40 1012.8
20260905193725 36 184 4.8 8.0 0.00 0.08 0.08 42 1012.9
20260905193220 37 165 0.0 3.2 0.00 0.08 0.08 41 1012.8
20260905192715 36 179 1.6 3.2 0.00 0.08 0.08 39 1012.7
20260905192212 36 161 1.6 4.8 0.00 0.08 0.08 41 1012.9
20260905191711 36 178 1.6 1.6 0.00 0.08 0.08 42 1013.0
20260905191209 36 170 0.0 8.0 0.00 0.08 0.08 41 1013.0
20260905190708 36 189 1.6 8.0 0.00 0.08 0.08 41 1013.3
20260905190207 37 131 0.0 1.6 0.00 0.08 0.08 43 1013.2
20260905185706 37 167 0.0 1.6 0.00 0.08 0.08 42 1013.3
20260905185206 36 175 0.0 3.2 0.00 0.08 0.08 45 1013.2
20260905184701 36 142 1.6 3.2 0.00 0.08 0.08 41 1013.4
20260905184200 36 178 0.0 1.6 0.00 0.08 0.08 42 1013.3
20260905183700 35 173 0.0 0.0 0.00 0.08 0.08 45 1013.4
20260905183155 35 173 0.0 0.0 0.00 0.08 0.08 46 1013.4
20260905182654 35 176 0.0 1.6 0.00 0.08 0.08 45 1013.6
20260905182154 35 217 4.8 4.8 0.00 0.08 0.08 44 1013.8
20260905181650 35 173 1.6 1.6 0.00 0.08 0.08 45 1013.7
20260905181149 35 197 1.6 3.2 0.00 0.08 0.08 45 1013.8
20260905180643 35 172 0.0 3.2 0.00 0.08 0.08 46 1013.9
20260905180139 36 183 1.6 4.8 0.00 0.08 0.08 42 1014.0
20260905175637 37 170 1.6 1.6 0.00 0.08 0.08 43 1013.9